[[{"header":{"parameterUnit":"m.s-1","parameterCategory":1,"la1":30.2992,"la2":30.254,"lo1":-89.0895,"lo2":-89.0443,"dy":0.0025,"dx":0.0025,"nx":19,"ny":19,"refTime":"2026-04-02T21:00:00:Z","depth":0,"parameterNumber":2,"parameterNumberName":"U-component_of_WINDS"},"data":[0,0,0,-3.8934,-3.8936,-3.9025,-3.9025,-3.9146,-3.9147,0,0,0,0,0,0,0,0,0,0,0,-3.8912,-3.8913,-3.8933,-3.8936,-3.9025,-3.9025,-3.9146,-3.9147,0,0,0,0,0,0,0,0,0,0,0,-3.8912,-3.8913,-3.8914,-3.8936,-3.9025,-3.9025,-3.9146,-3.9076,0,0,0,0,0,0,0,0,0,0,-3.8988,-3.8973,-3.8913,-3.8914,-3.8937,-3.9025,-3.9025,-3.9072,-3.908,-3.9109,0,-3.9137,0,-3.9144,-3.9156,-3.9156,0,0,0,-3.8932,-3.8967,-3.8986,-3.8915,-3.8938,-3.9025,-3.8983,-3.9076,-3.9085,-3.9119,-3.9139,-3.9143,-3.9146,-3.9157,-3.9157,-3.934,-3.9341,0,0,-3.8927,-3.8931,-3.898,-3.8993,-3.898,-3.8981,-3.8986,-3.9082,-3.9103,-3.9139,-3.9146,-3.9148,-3.9158,-3.9159,-3.9339,-3.9341,0,0,0,-3.8915,-3.8928,-3.8945,-3.8988,-3.9003,-3.8983,-3.899,-3.9098,-3.9104,-3.9147,-3.915,-3.9158,-3.916,-3.9338,-3.934,-3.9394,0,0,0,-3.8912,-3.8921,-3.8943,-3.8946,-3.9002,-3.9052,-3.9005,-3.9097,-3.9108,-3.9149,-3.9158,-3.9161,-3.9337,-3.9339,-3.939,-3.9419,0,0,0,-3.8905,-3.892,-3.8935,-3.8946,-3.8985,-3.9051,-3.9061,-3.9099,-3.911,-3.9156,-3.9162,-3.9336,-3.9339,-3.9387,-3.9413,-3.9466,0,0,0,-3.8898,-3.8983,-3.8936,-3.9032,-3.8984,-3.9085,-3.9061,-3.9135,-3.9182,-3.9159,-3.9337,-3.934,-3.9386,-3.9409,-3.9462,-3.951,-3.9531,0,0,-3.9007,-3.8996,-3.9053,-3.9013,-3.9123,-3.9071,-3.9189,-3.9228,-3.9228,-3.9303,-3.9307,-3.9392,-3.9412,-3.9465,-3.9652,-3.9669,0,0,0,-3.9089,-3.9129,-3.9157,-3.9202,-3.9235,-3.9264,-3.9285,-3.9299,-3.9362,-3.9268,-3.9427,-3.9439,-3.947,-3.9492,-3.9506,-3.9531,-3.9351,-3.9351,-3.9351,-3.9248,-3.9245,-3.9337,-3.9344,-3.9389,-3.9409,-3.9444,-3.9467,-3.9451,-3.9489,-3.9509,-3.9623,-3.965,-3.966,-3.9686,-3.9537,-3.9537,-3.9537,-3.9537,-3.9406,-3.9461,-3.9438,-3.9519,-3.9515,-3.9582,-3.9606,-3.9592,-3.9653,-3.9607,-3.9634,-3.9581,-3.9679,-3.9701,-3.9542,-3.9541,-3.954,-3.954,-3.954,-3.9507,-3.9532,-3.955,-3.9614,-3.9665,-3.967,-3.973,-3.9724,-3.972,-3.9747,-3.9767,-3.9766,-3.9762,-3.9757,-3.9758,-3.9758,-3.9759,-3.9759,-3.9759,-3.9603,-3.9621,-3.9673,-3.9715,-3.9743,-3.9779,-3.9801,-3.9828,-3.9857,-3.9848,-3.9848,-3.9826,-3.969,-3.9654,-3.9765,-3.9764,-3.9763,-3.9763,-3.9762,-3.9759,-3.9723,-3.9803,-3.9831,-3.9879,-3.9928,-3.9922,-3.9978,-4.0,-4.0029,-4.0003,-3.9904,-3.9892,-3.988,-3.985,-4.0005,-4.0005,-4.0005,-4.0005,-3.9842,-3.9836,-3.9916,-3.9961,-4.0005,-4.0007,-4.0095,-4.0113,-4.0127,-4.0139,-4.0117,-4.0078,-4.0067,-4.0061,-4.0046,-4.0017,-4.0211,-4.0211,-4.0212,-3.9936,-3.9935,-4.001,-4.0024,-4.0062,-4.0094,-4.0176,-4.0227,-4.0235,-4.022,-4.0149,-4.014,-4.0077,-4.0057,-4.0037,-4.0013,-3.9961,0,0]},{"header":{"parameterUnit":"m.s-1","parameterCategory":1,"la1":30.2992,"la2":30.254,"lo1":-89.0895,"lo2":-89.0443,"dy":0.0025,"dx":0.0025,"nx":19,"ny":19,"refTime":"2026-04-02T21:00:00:Z","depth":0,"parameterNumber":3,"parameterNumberName":"V-component_of_WINDS"},"data":[0,0,0,2.3766,2.3766,2.3752,2.3751,2.3744,2.3744,0,0,0,0,0,0,0,0,0,0,0,2.3778,2.3778,2.3766,2.3766,2.3752,2.3751,2.3744,2.3744,0,0,0,0,0,0,0,0,0,0,0,2.3777,2.3778,2.3778,2.3766,2.3752,2.3751,2.3744,2.3751,0,0,0,0,0,0,0,0,0,0,2.3763,2.3781,2.3778,2.3778,2.3766,2.3752,2.3751,2.3751,2.3751,2.3756,0,2.3763,0,2.3754,2.3745,2.3745,0,0,0,2.376,2.3781,2.3771,2.3778,2.3766,2.3752,2.3756,2.3751,2.375,2.3755,2.3763,2.3763,2.3754,2.3745,2.3745,2.3799,2.38,0,0,2.3761,2.3779,2.3772,2.3771,2.3775,2.3757,2.3756,2.375,2.3759,2.3763,2.3762,2.3754,2.3745,2.3745,2.3799,2.38,0,0,0,2.3767,2.3779,2.3769,2.3772,2.3768,2.3757,2.3756,2.376,2.3755,2.3762,2.3754,2.3745,2.3745,2.3798,2.3799,2.3844,0,0,0,2.3767,2.3783,2.377,2.378,2.3769,2.3764,2.3765,2.3755,2.3754,2.3754,2.3745,2.3745,2.3798,2.3799,2.3842,2.3862,0,0,0,2.3776,2.3784,2.3785,2.3781,2.3776,2.3764,2.3758,2.3754,2.3749,2.3745,2.3745,2.3797,2.3799,2.3839,2.3858,2.3883,0,0,0,2.379,2.3823,2.3786,2.3819,2.3776,2.3792,2.3758,2.3768,2.377,2.3745,2.3798,2.3799,2.3839,2.3856,2.3881,2.3908,2.392,0,0,2.3841,2.383,2.3848,2.3814,2.3842,2.3793,2.3826,2.3809,2.3791,2.3798,2.3799,2.3842,2.3858,2.3883,2.3984,2.3995,0,0,0,2.3871,2.3884,2.3887,2.3891,2.3881,2.3874,2.385,2.3845,2.385,2.3799,2.3857,2.3866,2.3879,2.3891,2.39,2.3911,2.3805,2.3805,2.3805,2.3968,2.3946,2.3976,2.3952,2.3956,2.3934,2.3935,2.3923,2.3897,2.3912,2.3913,2.3978,2.3993,2.3999,2.4011,2.3925,2.3925,2.3925,2.3926,2.4042,2.4059,2.4027,2.4044,2.4021,2.4034,2.4015,2.3997,2.4007,2.3974,2.3985,2.3952,2.4011,2.4021,2.3929,2.3928,2.3928,2.3927,2.3927,2.4104,2.4108,2.4102,2.4107,2.4113,2.4087,2.4099,2.4077,2.4055,2.4066,2.4066,2.4065,2.4063,2.4068,2.4068,2.4068,2.4068,2.4069,2.4069,2.4171,2.4163,2.4176,2.417,2.4171,2.4168,2.4148,2.4147,2.4141,2.4124,2.4124,2.4098,2.4021,2.4003,2.4072,2.4071,2.4071,2.4071,2.4071,2.4255,2.4233,2.4254,2.4255,2.4247,2.4255,2.4227,2.4229,2.4225,2.4233,2.4205,2.4152,2.4137,2.413,2.4115,2.4209,2.4209,2.4209,2.4209,2.4308,2.43,2.4317,2.432,2.4321,2.4298,2.4323,2.4308,2.4289,2.4286,2.4269,2.4247,2.424,2.423,2.422,2.4206,2.4321,2.4321,2.4321,2.436,2.435,2.4376,2.4358,2.4351,2.4345,2.4369,2.4374,2.4347,2.4325,2.4283,2.4278,2.4242,2.4231,2.4208,2.4194,2.4166,0,0]}]]